Location: Unspecified
(53.5538°N, 0.0000°E)
Time: 01:03:58
(UTC+00:00)

CZ-6A DEB - Visible Passes

Search period start: 04 April 2026 00:00
Search period end: 14 April 2026 00:00
Orbit: 827 x 1191 km, 98.9° (Epoch: 29 March)

Date Brightness Start Highest point End Pass type
(mag) Time Alt. Az. Time Alt. Az. Time Alt. Az.
4 Apr ? 00:52:54 10° NNE 00:58:34 82° E 00:58:34 82° E visible
4 Apr ? 02:37:41 10° N 02:42:10 25° NW 02:43:57 21° W visible
4 Apr ? 23:43:53 10° NNE 23:48:28 30° E 23:48:28 30° E visible
5 Apr ? 01:27:38 10° N 01:33:18 61° WNW 01:33:50 59° W visible
5 Apr ? 03:12:59 10° N 03:16:21 16° NW 03:19:13 12° WNW visible
6 Apr ? 00:18:12 10° NNE 00:23:43 51° E 00:23:43 51° E visible
6 Apr ? 02:02:30 10° N 02:07:47 38° WNW 02:09:06 34° W visible
6 Apr ? 03:49:12 10° NNW 03:50:22 11° NW 03:51:33 10° NW visible
6 Apr ? 23:09:51 10° NE 23:13:37 18° E 23:13:37 18° E visible
7 Apr ? 00:52:45 10° NNE 00:58:39 84° ESE 00:58:59 80° SSE visible
7 Apr ? 02:37:32 10° N 02:42:07 25° NW 02:44:22 20° W visible
7 Apr ? 23:43:43 10° NNE 23:48:52 31° E 23:48:52 31° E visible
8 Apr ? 01:27:29 10° N 01:33:17 61° WNW 01:34:15 54° WSW visible
8 Apr ? 03:12:48 10° N 03:16:18 17° NW 03:19:38 11° W visible
8 Apr ? 22:37:36 10° ENE 22:38:38 10° E 22:38:46 10° E visible
9 Apr ? 00:18:03 10° NNE 00:23:53 52° E 00:24:08 52° ESE visible
9 Apr ? 02:02:21 10° N 02:07:45 39° WNW 02:09:31 32° W visible
9 Apr ? 03:48:50 10° NNW 03:50:18 11° NW 03:51:47 10° NW visible
9 Apr ? 23:09:39 10° NE 23:13:54 19° E 23:14:01 19° E visible
10 Apr ? 00:52:37 10° NNE 00:58:38 85° ESE 00:59:25 70° S visible
10 Apr ? 02:37:22 10° N 02:42:04 25° NW 02:44:47 19° W visible
10 Apr ? 23:43:34 10° NNE 23:48:58 32° E 23:49:18 32° E visible
11 Apr ? 01:27:20 10° N 01:33:15 61° WNW 01:34:41 49° WSW visible
11 Apr ? 03:12:37 10° N 03:16:14 17° NW 03:20:02 10° W visible
11 Apr ? 22:36:59 10° ENE 22:38:37 11° E 22:39:12 11° E visible
12 Apr ? 00:17:55 10° NNE 00:23:51 53° E 00:24:34 51° ESE visible
12 Apr ? 02:02:12 10° N 02:07:42 39° WNW 02:09:57 30° W visible
12 Apr ? 03:48:32 10° NNW 03:50:15 11° NW 03:52:00 10° NW visible
12 Apr ? 23:09:28 10° NE 23:13:54 20° E 23:14:28 20° E visible
13 Apr ? 00:52:28 10° NNE 00:58:37 86° ESE 00:59:50 62° S visible
13 Apr ? 02:37:12 10° N 02:42:01 26° NW 02:45:13 17° W visible
13 Apr ? 23:43:24 10° NNE 23:48:58 33° E 23:49:44 32° ESE visible
